Weather History for KNJK - February, 2012

Change the Weather History Date:

Tuesday, February 28, 2012

  Actual Average (KCZZ) Record (KCZZ)
Temperature  
Mean Temperature 54 °F 50 °F  
Max Temperature 64 °F 65 °F 83 °F (1999)
Min Temperature 44 °F 36 °F 19 °F (1964)
Degree Days  
Heating Degree Days 10 15  
Month to date heating degree days 436  
Since 1 July heating degree days 2051  
Cooling Degree Days 0 0  
Month to date cooling degree days 0  
Year to date cooling degree days 0  
Growing Degree Days 4 (Base 50)    
Moisture  
Dew Point 32 °F    
Average Humidity 45    
Maximum Humidity 66    
Minimum Humidity 25    
Precipitation  
Precipitation 0.00 in 0.11 in 1.79 in (1991)
Month to date precipitation 3.23  
Year to date precipitation 6.21  
Snow  
Snow 0.00 in - - ()
Month to date snowfall  
Year to date snowfall  
Since 1 July snowfall  
Snow Depth -    
Sea Level Pressure  
Sea Level Pressure 30.19 in    
Wind  
Wind Speed 8 mph (West)    
Max Wind Speed 13 mph    
Max Gust Speed 26 mph    
Visibility 10 miles    
Events Rain    
T = Trace of Precipitation, MM = Missing Value Source: NWS Daily Summary

Daily Weather History Graph

Daily Weather History Graph

Search for Another Location

Airport or City:

Trip Planner

Search our weather history database for the weather conditions in past years. The results will help you decide how hot, cold, wet, or windy it might be!

Date:

Astronomy

Feb. 28, 2012 Rise Set
Actual Time 6:12 AM PST 5:38 PM PST
Civil Twilight 5:47 AM PST 6:03 PM PST
Nautical Twilight 5:18 AM PST 6:32 PM PST
Astronomical Twilight 4:50 AM PST 7:00 PM PST
Moon 9:46 AM PST (2/28) No Moon Set
Length of Visible Light 12h 16m
Length of Day
11h 26m
Waxing Crescent, 39% of the Moon is Illuminated
Feb 28
Waxing Crescent
Feb 29
First Quarter
Mar 8
Full
Mar 14
Last Quarter
Mar 22
New

Hourly Weather History & Observations

Time (PST) Temp. Windchill Dew Point Humidity Pressure Visibility Wind Dir Wind Speed Gust Speed Precip Events Conditions
12:56 AM 48.0 °F - 34.0 °F 58% 30.00 in 10.0 mi WSW 11.5 mph - N/A   Clear
1:56 AM 45.0 °F 40.6 °F 34.0 °F 65% 30.02 in 10.0 mi WNW 8.1 mph - N/A   Partly Cloudy
2:56 AM 48.0 °F - 33.1 °F 56% 30.04 in 10.0 mi West 9.2 mph - N/A   Scattered Clouds
3:56 AM 51.1 °F - 33.1 °F 50% 30.08 in 10.0 mi WSW 11.5 mph 26.5 mph N/A   Partly Cloudy
4:56 AM 48.0 °F - 34.0 °F 58% 30.12 in 10.0 mi SSW 4.6 mph - N/A   Clear
5:56 AM 46.9 °F - 30.9 °F 54% 30.16 in 10.0 mi West 12.7 mph - 0.00 in Rain Light Rain
6:56 AM 46.0 °F - 35.1 °F 66% 30.19 in 10.0 mi Calm Calm - N/A   Partly Cloudy
7:56 AM 51.1 °F - 35.1 °F 54% 30.22 in 10.0 mi WSW 3.5 mph - N/A   Clear
8:56 AM 55.0 °F - 32.0 °F 42% 30.24 in 10.0 mi WNW 8.1 mph - N/A   Clear
9:56 AM 57.0 °F - 30.0 °F 36% 30.25 in 10.0 mi West 6.9 mph - N/A   Clear
10:56 AM 59.0 °F - 30.9 °F 35% 30.25 in 10.0 mi West 9.2 mph - N/A   Clear
11:56 AM 60.1 °F - 32.0 °F 35% 30.24 in 10.0 mi SW 8.1 mph - N/A   Clear
12:56 PM 63.0 °F - 32.0 °F 31% 30.21 in 10.0 mi SW 9.2 mph - N/A   Clear
1:56 PM 64.0 °F - 30.9 °F 29% 30.20 in 10.0 mi South 4.6 mph - N/A   Clear
2:56 PM 64.9 °F - 28.0 °F 25% 30.20 in 10.0 mi WNW 6.9 mph - N/A   Clear
3:56 PM 64.9 °F - 28.0 °F 25% 30.20 in 10.0 mi West 5.8 mph - N/A   Clear
4:56 PM 62.1 °F - 32.0 °F 32% 30.20 in 10.0 mi West 6.9 mph - N/A   Clear
5:56 PM 59.0 °F - 33.1 °F 38% 30.22 in 10.0 mi East 5.8 mph - N/A   Clear
6:29 PM - - - N/A% - - North - - N/A   Unknown
6:56 PM 55.9 °F - 33.1 °F 42% 30.22 in 10.0 mi Calm Calm - N/A   Clear
7:56 PM 52.0 °F - 32.0 °F 47% 30.23 in 10.0 mi WNW 6.9 mph - N/A   Clear
8:56 PM 50.0 °F - 30.9 °F 48% 30.24 in 10.0 mi WNW 6.9 mph - N/A   Clear
9:56 PM 50.0 °F - 33.1 °F 52% 30.25 in 10.0 mi West 9.2 mph - N/A   Clear
10:56 PM 46.9 °F - 30.9 °F 54% 30.25 in 10.0 mi West 10.4 mph - N/A   Clear
11:56 PM 44.1 °F 40.1 °F 28.9 °F 55% 30.25 in 10.0 mi WNW 6.9 mph - N/A   Clear